FW4728 Weather Reports


time (UTC)temp
C
wind
direction
speed
KPH
gust
KPH
rain 1hr
cm
rain 24hr
cm
rain mn
cm
humidity
%
barometer
mb
20260503030304 10 248 0.0 4.8 0.00 0.00 0.00 52 1015.2
20260503025305 10 248 0.0 8.0 0.00 0.00 0.00 52 1015.2
20260503024805 10 248 1.6 8.0 0.00 0.00 0.00 52 1015.3
20260503023805 9 230 0.0 0.0 0.00 0.00 0.00 52 1015.3
20260503023304 9 230 0.0 1.6 0.00 0.00 0.00 52 1015.4
20260503022805 9 230 0.0 1.6 0.00 0.00 0.00 52 1015.3
20260503022305 9 230 0.0 0.0 0.00 0.00 0.00 52 1015.4
20260503021805 10 230 0.0 0.0 0.00 0.00 0.00 51 1015.3
20260503021305 10 230 0.0 0.0 0.00 0.00 0.00 51 1015.2
20260503020804 10 230 0.0 0.0 0.00 0.00 0.00 50 1015.2
20260503015804 10 230 0.0 0.0 0.00 0.00 0.00 48 1015.2
20260503015305 11 230 0.0 0.0 0.00 0.00 0.00 48 1015.2
20260503014805 11 230 0.0 0.0 0.00 0.00 0.00 45 1015.2
20260503014305 11 230 0.0 0.0 0.00 0.00 0.00 44 1015.2
20260503013804 11 230 0.0 4.8 0.00 0.00 0.00 44 1015.1
20260503013305 12 230 0.0 4.8 0.00 0.00 0.00 42 1015.1
20260503012805 12 230 0.0 4.8 0.00 0.00 0.00 41 1015.2
20260503012306 12 230 1.6 4.8 0.00 0.00 0.00 41 1015.2
20260503011804 12 230 0.0 4.8 0.00 0.00 0.00 40 1015.1
20260503011305 13 230 3.2 4.8 0.00 0.00 0.00 38 1015.2
20260503010305 13 230 3.2 11.3 0.00 0.00 0.00 37 1015.2
20260503005805 13 230 0.0 12.9 0.00 0.00 0.00 36 1015.2
20260503005305 13 232 1.6 12.9 0.00 0.00 0.00 36 1015.3
20260503004805 14 270 3.2 11.3 0.00 0.00 0.00 35 1015.3
20260503003805 14 236 9.7 12.9 0.00 0.00 0.00 33 1015.3
20260503003305 14 205 4.8 11.3 0.00 0.00 0.00 33 1015.3
20260503002805 14 205 4.8 11.3 0.00 0.00 0.00 33 1015.4
20260503002305 14 202 9.7 12.9 0.00 0.00 0.00 32 1015.4
20260503001304 15 286 14.5 19.3 0.00 0.00 0.00 31 1015.6
20260503000805 15 295 14.5 19.3 0.00 0.00 0.00 31 1015.6
20260503000305 15 280 9.7 19.3 0.00 0.00 0.00 32 1015.6
20260502235805 15 245 8.0 16.1 0.00 0.00 0.00 32 1015.5
20260502235305 15 240 9.7 22.5 0.00 0.00 0.00 32 1015.5
20260502234804 15 240 11.3 22.5 0.00 0.00 0.00 31 1015.5
20260502234305 15 246 8.0 19.3 0.00 0.00 0.00 32 1015.7
20260502233805 15 223 9.7 19.3 0.00 0.00 0.00 32 1015.7
20260502233305 15 279 12.9 19.3 0.00 0.00 0.00 31 1015.8
20260502232805 15 277 9.7 19.3 0.00 0.00 0.00 30 1015.8
20260502232305 15 277 9.7 24.1 0.00 0.00 0.00 31 1015.8
20260502231805 15 264 16.1 24.1 0.00 0.00 0.00 31 1015.9
20260502231305 15 246 14.5 22.5 0.00 0.00 0.00 31 1015.9
20260502230805 15 238 14.5 22.5 0.00 0.00 0.00 31 1016.0
20260502225805 15 264 16.1 22.5 0.00 0.00 0.00 30 1016.0
20260502224805 16 279 8.0 27.4 0.00 0.00 0.00 31 1016.1
20260502224305 16 258 19.3 27.4 0.00 0.00 0.00 30 1016.0
20260502223804 16 295 4.8 16.1 0.00 0.00 0.00 33 1016.0
20260502223305 16 342 14.5 22.5 0.00 0.00 0.00 31 1015.9
20260502222805 16 236 12.9 22.5 0.00 0.00 0.00 31 1016.0
20260502222305 16 284 14.5 22.5 0.00 0.00 0.00 31 1015.9
20260502221805 16 107 11.3 24.1 0.00 0.00 0.00 32 1015.9
20260502221305 16 241 16.1 27.4 0.00 0.00 0.00 31 1015.9
20260502220804 16 235 8.0 27.4 0.00 0.00 0.00 33 1015.9
20260502220305 16 252 22.5 27.4 0.00 0.00 0.00 29 1016.0
20260502215805 16 258 9.7 33.8 0.00 0.00 0.00 31 1016.1
20260502215305 16 272 11.3 33.8 0.00 0.00 0.00 31 1016.1
20260502214805 16 232 16.1 29.0 0.00 0.00 0.00 31 1016.2
20260502214305 16 280 19.3 29.0 0.00 0.00 0.00 30 1016.1
20260502213804 16 256 11.3 19.3 0.00 0.00 0.00 31 1016.0
20260502212804 16 226 4.8 22.5 0.00 0.00 0.00 31 1016.3
20260502212305 16 260 14.5 22.5 0.00 0.00 0.00 30 1016.3
20260502211805 16 271 9.7 33.8 0.00 0.00 0.00 29 1016.4
20260502211304 16 220 14.5 33.8 0.00 0.00 0.00 30 1016.5
20260502210804 16 228 20.9 33.8 0.00 0.00 0.00 30 1016.6
20260502210304 16 287 9.7 24.1 0.00 0.00 0.00 32 1016.5
20260502205305 15 223 14.5 38.6 0.00 0.00 0.00 31 1016.7
20260502204804 16 257 29.0 38.6 0.00 0.00 0.00 31 1016.7
20260502204305 15 254 4.8 27.4 0.00 0.00 0.00 34 1016.8
20260502203805 15 244 14.5 29.0 0.00 0.00 0.00 31 1016.9
20260502203304 15 263 20.9 29.0 0.00 0.03 0.00 31 1017.0
20260502202804 15 260 19.3 22.5 0.00 0.03 0.00 31 1017.1
20260502202305 15 233 17.7 24.1 0.00 0.03 0.00 34 1017.2
20260502201805 15 255 14.5 24.1 0.00 0.03 0.00 33 1017.1
20260502201304 15 144 11.3 19.3 0.00 0.03 0.00 34 1017.1
20260502200805 15 304 4.8 24.1 0.00 0.03 0.00 32 1017.3
20260502200304 15 218 14.5 27.4 0.00 0.03 0.00 30 1017.4
20260502195804 15 243 20.9 27.4 0.00 0.03 0.00 32 1017.4
20260502194805 15 158 12.9 22.5 0.00 0.03 0.00 34 1017.5
20260502193804 15 267 9.7 24.1 0.00 0.03 0.00 37 1017.7
20260502193304 15 221 22.5 24.1 0.00 0.03 0.00 32 1017.8
20260502192305 14 334 12.9 22.5 0.00 0.03 0.00 35 1017.8
20260502191805 15 211 14.5 29.0 0.00 0.03 0.00 30 1017.9
20260502191305 15 263 9.7 29.0 0.00 0.03 0.00 34 1017.9
20260502190805 15 268 14.5 24.1 0.00 0.03 0.00 34 1017.9
20260502190304 15 252 12.9 16.1 0.00 0.03 0.00 34 1017.9
20260502185805 15 193 4.8 16.1 0.00 0.03 0.00 35 1018.0
20260502185306 15 178 9.7 16.1 0.00 0.03 0.00 33 1018.0
20260502184804 15 260 12.9 12.9 0.00 0.03 0.00 31 1018.2
20260502184304 15 345 8.0 12.9 0.00 0.03 0.00 38 1018.2
20260502183805 15 0 9.7 12.9 0.00 0.03 0.00 38 1018.3
20260502183304 14 347 9.7 12.9 0.00 0.03 0.00 35 1018.3
20260502182805 14 60 8.0 12.9 0.00 0.03 0.00 35 1018.4
20260502182305 14 355 9.7 12.9 0.00 0.03 0.00 36 1018.4
20260502181805 13 93 4.8 19.3 0.00 0.03 0.00 38 1018.5
20260502181304 14 245 19.3 19.3 0.00 0.03 0.00 33 1018.6
20260502180305 13 278 9.7 22.5 0.00 0.03 0.00 36 1018.7
20260502170304 13 261 9.7 11.3 0.00 0.03 0.00 38 1019.2
20260502164305 12 307 4.8 8.0 0.00 0.03 0.00 44 1019.4
20260502163805 12 0 3.2 11.3 0.00 0.03 0.00 42 1019.5
20260502163305 12 225 4.8 11.3 0.00 0.03 0.00 37 1019.5
20260502162804 12 152 8.0 11.3 0.00 0.03 0.00 37 1019.5
20260502162305 13 286 4.8 19.3 0.00 0.03 0.00 36 1019.5
20260502161805 13 305 11.3 19.3 0.00 0.03 0.00 38 1019.5
20260502161304 12 17 14.5 19.3 0.00 0.03 0.00 42 1019.5
20260502160805 12 55 9.7 12.9 0.00 0.03 0.00 40 1019.5
20260502160304 13 29 8.0 11.3 0.00 0.03 0.00 46 1019.6
20260502151804 11 263 4.8 11.3 0.00 0.03 0.00 46 1019.7
20260502151304 11 306 9.7 11.3 0.00 0.03 0.00 46 1019.7
20260502130304 6 183 3.2 11.3 0.00 0.03 0.00 83 1019.6
20260502123804 5 159 6.4 8.0 0.00 0.03 0.00 94 1019.5
20260502123304 4 51 4.8 8.0 0.00 0.03 0.00 96 1019.5
20260502122804 4 51 4.8 8.0 0.00 0.03 0.00 100 1019.5
20260502122306 3 51 1.6 4.8 0.00 0.03 0.00 100 1019.4
20260502121805 3 51 0.0 1.6 0.00 0.03 0.00 100 1019.4
20260502121305 3 51 0.0 1.6 0.00 0.03 0.00 100 1019.3
20260502120805 2 51 0.0 0.0 0.00 0.03 0.00 100 1019.3
20260502115306 1 51 0.0 0.0 0.00 0.03 0.00 100 1019.3
20260502114804 1 51 0.0 0.0 0.00 0.03 0.00 100 1019.2
20260502114304 1 51 0.0 0.0 0.00 0.03 0.00 100 1019.1
20260502112804 0 51 0.0 0.0 0.00 0.03 0.00 98 1019.0
20260502112306 0 51 0.0 0.0 0.00 0.03 0.00 98 1019.0
20260502111804 0 51 0.0 0.0 0.00 0.03 0.00 98 1018.9
20260502111304 0 51 0.0 0.0 0.00 0.03 0.00 98 1018.9
20260502110805 0 51 0.0 0.0 0.00 0.03 0.00 97 1018.9
20260502105804 0 51 0.0 0.0 0.00 0.03 0.00 96 1018.9
20260502105306 0 51 0.0 0.0 0.00 0.03 0.00 96 1018.8
20260502104804 0 51 0.0 0.0 0.00 0.03 0.00 96 1018.8
20260502103805 0 51 0.0 0.0 0.00 0.03 0.00 94 1018.7
20260502103304 0 51 0.0 0.0 0.00 0.03 0.00 94 1018.7
20260502102804 0 51 0.0 0.0 0.00 0.03 0.00 92 1018.6
20260502102306 0 51 0.0 0.0 0.00 0.03 0.00 92 1018.6
20260502101804 0 51 0.0 0.0 0.00 0.03 0.00 92 1018.7
20260502101305 0 51 0.0 0.0 0.00 0.03 0.00 91 1018.6
20260502100805 1 51 0.0 0.0 0.00 0.03 0.00 90 1018.6
20260502100305 1 51 0.0 0.0 0.00 0.03 0.00 90 1018.7
20260502091305 2 51 0.0 0.0 0.00 0.03 0.00 82 1018.7
20260502090804 2 51 0.0 0.0 0.00 0.03 0.00 82 1018.6
20260502090304 2 51 0.0 0.0 0.00 0.03 0.00 82 1018.6
20260502071304 5 83 3.2 12.9 0.00 0.03 0.00 69 1018.6
20260502070804 5 75 8.0 12.9 0.00 0.03 0.00 68 1018.5
20260502070304 5 71 6.4 12.9 0.00 0.03 0.00 67 1018.6
20260502065803 5 52 8.0 12.9 0.00 0.03 0.00 66 1018.6
20260502064804 5 121 4.8 16.1 0.00 0.03 0.00 65 1018.6
20260502064304 5 11 4.8 16.1 0.00 0.03 0.00 64 1018.6
20260502063804 5 50 1.6 16.1 0.00 0.03 0.00 63 1018.6
20260502063303 5 2 3.2 12.9 0.00 0.03 0.00 62 1018.6
20260502062804 5 42 8.0 11.3 0.00 0.03 0.00 62 1018.6
20260502062306 5 43 8.0 11.3 0.00 0.03 0.00 62 1018.5
20260502061804 5 5 4.8 11.3 0.00 0.03 0.00 62 1018.6
20260502060803 5 358 3.2 8.0 0.00 0.03 0.00 63 1018.6
20260502060304 5 358 0.0 8.0 0.00 0.03 0.00 63 1018.5
20260502055306 5 358 1.6 4.8 0.00 0.03 0.00 65 1018.5
20260502054804 4 358 0.0 1.6 0.00 0.03 0.00 65 1018.5
20260502054304 4 358 0.0 0.0 0.00 0.03 0.00 65 1018.4
20260502053804 5 358 0.0 0.0 0.00 0.03 0.00 65 1018.4
20260502053305 5 358 0.0 0.0 0.00 0.03 0.00 64 1018.4
20260502052804 5 358 0.0 0.0 0.00 0.03 0.00 64 1018.3
20260502052306 5 358 0.0 0.0 0.00 0.03 0.00 64 1018.4
20260502050814 5 358 0.0 0.0 0.00 0.03 0.00 60 1018.4
20260502050304 6 358 0.0 0.0 0.00 0.03 0.00 60 1018.4
20260502045804 6 358 0.0 0.0 0.00 0.03 0.03 59 1018.3
20260502045306 6 358 0.0 0.0 0.00 0.03 0.03 58 1018.2
20260502044804 6 358 0.0 1.6 0.00 0.03 0.03 58 1018.2
20260502044304 6 358 0.0 1.6 0.00 0.03 0.03 57 1018.2
20260502043804 7 358 0.0 1.6 0.00 0.03 0.03 56 1018.2
20260502043304 7 358 0.0 4.8 0.00 0.03 0.03 56 1018.2
20260502042306 7 358 1.6 4.8 0.00 0.03 0.03 55 1018.1
20260502041805 7 358 1.6 4.8 0.00 0.03 0.03 55 1018.0
20260502041304 7 358 0.0 1.6 0.00 0.03 0.03 55 1018.1
20260502040303 8 358 0.0 1.6 0.00 0.03 0.03 54 1018.0
20260502035804 8 358 0.0 1.6 0.00 0.03 0.03 54 1018.1
20260502035306 8 358 0.0 4.8 0.00 0.03 0.03 54 1018.0
20260502034805 8 358 1.6 4.8 0.00 0.03 0.03 54 1017.9
20260502033804 8 358 0.0 4.8 0.00 0.03 0.03 53 1017.8
20260502033304 8 358 1.6 4.8 0.00 0.03 0.03 53 1017.9
20260502032306 8 358 0.0 1.6 0.00 0.03 0.03 54 1017.8
20260502031303 8 358 1.6 4.8 0.00 0.03 0.03 55 1017.7